Time,TemperatureF,DewpointF,PressureIn,WindDirection,WindDirectionDegrees,WindSpeedMPH,WindSpeedGustMPH,Humidity,HourlyPrecipIn,Conditions,Clouds,dailyrainin,SolarRadiationWatts/m^2,SoftwareType,DateUTC
2013-01-06 16:03:00,77.0,67.0,-100.00,East,96,2.0,-999.0,72,0.00,,,-99.99,101.099998,,2013-01-06 21:03:00,
2013-01-06 16:33:00,72.0,67.0,-100.00,WNW,295,4.0,-999.0,83,0.19,,,-99.99,24.900000,,2013-01-06 21:33:00,
2013-01-06 16:43:00,70.0,67.0,-100.00,East,90,2.0,-999.0,90,0.00,,,-99.99,32.099998,,2013-01-06 21:43:00,
2013-01-06 16:53:00,70.0,67.0,-100.00,East,90,2.0,-999.0,90,0.00,,,-99.99,32.099998,,2013-01-06 21:53:00,
2013-01-06 17:02:00,70.0,68.0,-100.00,East,87,2.0,-999.0,91,0.00,,,-99.99,52.099998,,2013-01-06 22:02:00,
2013-01-06 17:12:00,70.0,68.0,-100.00,ENE,74,1.0,-999.0,92,0.00,,,-99.99,37.500000,,2013-01-06 22:12:00,
2013-01-06 17:22:00,70.0,68.0,-100.00,ENE,74,1.0,-999.0,92,0.00,,,-99.99,37.500000,,2013-01-06 22:22:00,
2013-01-06 17:33:00,70.0,68.0,-100.00,North,353,1.0,-999.0,93,0.00,,,-99.99,27.600000,,2013-01-06 22:33:00,
2013-01-06 17:43:00,70.0,68.0,-100.00,NNE,15,1.0,-999.0,93,0.00,,,-99.99,15.700000,,2013-01-06 22:43:00,
2013-01-06 17:53:00,70.0,68.0,-100.00,NNE,15,1.0,-999.0,93,0.00,,,-99.99,15.700000,,2013-01-06 22:53:00,
2013-01-06 18:02:00,70.0,68.0,-100.00,NNW,335,1.0,-999.0,93,0.00,,,-99.99,1.500000,,2013-01-06 23:02:00,
2013-01-06 18:12:00,70.0,68.0,-100.00,WSW,258,1.0,-999.0,94,0.00,,,-99.99,0.300000,,2013-01-06 23:12:00,
2013-01-06 18:22:00,70.0,68.0,-100.00,WSW,258,1.0,-999.0,94,0.00,,,-99.99,0.300000,,2013-01-06 23:22:00,
2013-01-06 18:33:00,70.0,68.0,-100.00,WSW,244,3.0,-999.0,94,0.00,,,-99.99,0.000000,,2013-01-06 23:33:00,
2013-01-06 18:43:00,70.0,68.0,-100.00,West,281,4.0,-999.0,94,0.00,,,-99.99,0.000000,,2013-01-06 23:43:00,
2013-01-06 18:53:00,70.0,68.0,-100.00,West,281,4.0,-999.0,94,0.00,,,-99.99,0.000000,,2013-01-06 23:53:00,
2013-01-06 19:02:00,70.0,68.0,-100.00,NW,305,3.0,-999.0,93,0.00,,,-99.99,0.000000,,2013-01-07 00:02:00,
2013-01-06 19:12:00,70.0,67.0,-100.00,East,100,1.0,-999.0,92,0.00,,,-99.99,0.000000,,2013-01-07 00:12:00,
2013-01-06 19:23:00,70.0,67.0,-100.00,East,100,1.0,-999.0,92,0.00,,,-99.99,0.000000,,2013-01-07 00:23:00,
2013-01-06 19:33:00,69.0,67.0,-100.00,SSE,150,1.0,-999.0,92,0.00,,,-99.99,0.000000,,2013-01-07 00:33:00,
2013-01-06 19:43:00,69.0,67.0,-100.00,North,2,2.0,-999.0,93,0.00,,,-99.99,0.000000,,2013-01-07 00:43:00,
2013-01-06 19:53:00,69.0,67.0,-100.00,North,2,2.0,-999.0,93,0.00,,,-99.99,0.000000,,2013-01-07 00:53:00,
2013-01-06 20:02:00,69.0,67.0,-100.00,NNW,339,2.0,-999.0,92,0.00,,,-99.99,0.000000,,2013-01-07 01:02:00,
2013-01-06 20:12:00,69.0,66.0,-100.00,NNW,335,2.0,-999.0,92,0.00,,,-99.99,0.000000,,2013-01-07 01:12:00,
2013-01-06 20:23:00,69.0,66.0,-100.00,NNW,335,2.0,-999.0,92,0.00,,,-99.99,0.000000,,2013-01-07 01:23:00,
2013-01-06 20:32:00,68.0,66.0,-100.00,NNW,336,1.0,-999.0,92,0.00,,,-99.99,0.000000,,2013-01-07 01:32:00,
2013-01-06 20:43:00,68.0,66.0,-100.00,NNW,348,2.0,-999.0,92,0.00,,,-99.99,0.000000,,2013-01-07 01:43:00,
2013-01-06 20:53:00,68.0,66.0,-100.00,NNW,348,2.0,-999.0,92,0.00,,,-99.99,0.000000,,2013-01-07 01:53:00,
2013-01-06 21:02:00,68.0,65.0,-100.00,NNW,345,2.0,-999.0,92,0.00,,,-99.99,0.000000,,2013-01-07 02:02:00,
2013-01-06 21:12:00,67.0,65.0,-100.00,NNW,338,2.0,-999.0,92,0.00,,,-99.99,0.000000,,2013-01-07 02:12:00,
2013-01-06 21:23:00,67.0,65.0,-100.00,NNW,338,2.0,-999.0,92,0.00,,,-99.99,0.000000,,2013-01-07 02:23:00,
2013-01-06 21:32:00,67.0,65.0,-100.00,North,355,1.0,-999.0,93,0.00,,,-99.99,0.000000,,2013-01-07 02:32:00,
2013-01-06 21:42:00,67.0,65.0,-100.00,North,349,2.0,-999.0,93,0.00,,,-99.99,0.000000,,2013-01-07 02:42:00,
2013-01-06 21:53:00,67.0,65.0,-100.00,North,349,2.0,-999.0,93,0.00,,,-99.99,0.000000,,2013-01-07 02:53:00,
2013-01-06 22:02:00,67.0,65.0,-100.00,NW,321,2.0,-999.0,93,0.00,,,-99.99,0.000000,,2013-01-07 03:02:00,
2013-01-06 22:12:00,67.0,65.0,-100.00,NW,325,3.0,-999.0,93,0.00,,,-99.99,0.000000,,2013-01-07 03:12:00,
2013-01-06 22:22:00,67.0,65.0,-100.00,NW,325,3.0,-999.0,93,0.00,,,-99.99,0.000000,,2013-01-07 03:22:00,
2013-01-06 22:33:00,67.0,65.0,-100.00,North,353,2.0,-999.0,93,0.00,,,-99.99,0.000000,,2013-01-07 03:33:00,
2013-01-06 22:43:00,67.0,65.0,-100.00,NNE,13,2.0,-999.0,93,0.00,,,-99.99,0.000000,,2013-01-07 03:43:00,
2013-01-06 22:53:00,67.0,65.0,-100.00,NNE,13,2.0,-999.0,93,0.00,,,-99.99,0.000000,,2013-01-07 03:53:00,
2013-01-06 23:02:00,67.0,65.0,-100.00,North,5,2.0,-999.0,93,0.00,,,-99.99,0.000000,,2013-01-07 04:02:00,
2013-01-06 23:12:00,67.0,65.0,-100.00,NE,45,2.0,-999.0,93,0.00,,,-99.99,0.000000,,2013-01-07 04:12:00,
2013-01-06 23:22:00,67.0,65.0,-100.00,NE,45,2.0,-999.0,93,0.00,,,-99.99,0.000000,,2013-01-07 04:22:00,
2013-01-06 23:32:00,67.0,65.0,-100.00,NNW,344,2.0,-999.0,94,0.00,,,-99.99,0.000000,,2013-01-07 04:32:00,
2013-01-06 23:42:00,67.0,65.0,-100.00,NNW,343,2.0,-999.0,94,0.00,,,-99.99,0.000000,,2013-01-07 04:42:00,
2013-01-06 23:52:00,67.0,65.0,-100.00,NNW,343,2.0,-999.0,94,0.00,,,-99.99,0.000000,,2013-01-07 04:52:00,